Weather reports worldwide

Advertisment
Piacenza, Italy (16084): temperature & dewpoint: 03.08.2020 22:00:00 - 09.08.2020 22:00:00 (CEST)Piacenza, Italy (16084): wind speed: 03.08.2020 22:00:00 - 09.08.2020 22:00:00 (CEST)Piacenza, Italy (16084): wind direction: 03.08.2020 22:00:00 - 09.08.2020 22:00:00 (CEST)Piacenza, Italy (16084): reduced air pressure: 03.08.2020 22:00:00 - 09.08.2020 22:00:00 (CEST)Piacenza, Italy (16084): visibility: 03.08.2020 22:00:00 - 09.08.2020 22:00:00 (CEST)Piacenza, Italy (16084): sunshine duration: 03.08.2020 22:00:00 - 09.08.2020 22:00:00 (CEST)
Date & Time tt [°C] td [°C] ff [km/h] ff [kn] dd ppp [hPa] vv [km] sd [min]
09.08.2020 22:00:00 - - - - - - - -
09.08.2020 21:00:00 - - - - - - - -
09.08.2020 20:00:00 30,6 18,4 9 5 E 1012,7 20 30
09.08.2020 19:00:00 32,0 16,0 13 7 E - 10 -
09.08.2020 18:00:00 32,0 16,0 13 7 E - 10 -
09.08.2020 17:00:00 32,4 15,4 9 5 E 1013,5 20 60
09.08.2020 16:00:00 32,0 15,0 11 6 E - 10 -
09.08.2020 15:00:00 32,0 15,0 13 7 E - 10 -
09.08.2020 14:00:00 31,4 15,8 9 5 E 1014,8 20 60
09.08.2020 13:00:00 31,0 18,0 8 4 E - 10 -
09.08.2020 12:00:00 30,0 18,0 5 3 NE - 10 -
09.08.2020 11:00:00 28,0 17,5 5 3 N 1016,6 18 60
09.08.2020 10:00:00 27,0 19,0 5 3 NNW - 10 -
09.08.2020 09:00:00 24,0 20,0 11 6 W - 10 -
09.08.2020 08:00:00 21,0 19,3 15 8 W 1017,1 18 48
09.08.2020 07:00:00 - - - - - - - -
09.08.2020 06:00:00 - - - - - - - -
09.08.2020 05:00:00 - - - - - - - -
09.08.2020 04:00:00 - - - - - - - -
09.08.2020 03:00:00 - - - - - - - -
09.08.2020 02:00:00 - - - - - - - -
09.08.2020 01:00:00 - - - - - - - -
09.08.2020 00:00:00 - - - - - - - -
08.08.2020 23:00:00 - - - - - - - -
08.08.2020 22:00:00 - - - - - - - -
08.08.2020 21:00:00 - - - - - - - -
08.08.2020 20:00:00 30,0 14,9 9 5 E 1016,0 25 24
08.08.2020 19:00:00 31,0 14,0 13 7 E - 10 -
08.08.2020 18:00:00 32,0 14,0 13 7 E - 10 -
08.08.2020 17:00:00 32,0 13,7 11 6 E 1016,5 25 60
08.08.2020 16:00:00 32,0 14,0 11 6 E - 10 -
08.08.2020 15:00:00 31,0 15,0 5 3 E - 10 -
08.08.2020 14:00:00 30,8 18,5 5 3 SSE 1017,7 20 60
08.08.2020 13:00:00 30,0 17,0 5 3 NNW - 10 -
08.08.2020 12:00:00 29,0 19,0 5 3 ENE - 10 -
08.08.2020 11:00:00 28,4 18,2 5 3 N 1018,3 20 60
08.08.2020 10:00:00 27,0 18,0 8 4 WNW - 10 -
08.08.2020 09:00:00 24,0 20,0 15 8 W - 10 -
08.08.2020 08:00:00 21,2 20,0 16 9 W 1018,6 20 24
08.08.2020 07:00:00 - - - - - - - -
08.08.2020 06:00:00 - - - - - - - -
08.08.2020 05:00:00 - - - - - - - -
08.08.2020 04:00:00 - - - - - - - -
08.08.2020 03:00:00 - - - - - - - -
08.08.2020 02:00:00 - - - - - - - -
08.08.2020 01:00:00 - - - - - - - -
08.08.2020 00:00:00 - - - - - - - -
07.08.2020 23:00:00 - - - - - - - -
07.08.2020 22:00:00 - - - - - - - -
07.08.2020 21:00:00 - - - - - - - -
07.08.2020 20:00:00 28,8 13,9 11 6 E 1016,7 20 24
07.08.2020 19:00:00 30,0 13,0 13 7 ESE - 10 -
07.08.2020 18:00:00 30,0 14,0 11 6 E - 10 -
07.08.2020 17:00:00 30,0 15,3 13 7 ESE 1016,8 20 60
07.08.2020 16:00:00 30,0 17,0 15 8 E - 10 -
07.08.2020 15:00:00 30,0 17,0 11 6 E - 10 -
07.08.2020 14:00:00 29,0 16,9 11 6 ENE 1017,6 20 60
07.08.2020 13:00:00 29,0 18,0 5 3 NE - 10 -
07.08.2020 12:00:00 28,0 20,0 9 5 E - 10 -
07.08.2020 11:00:00 27,0 19,1 9 5 ESE 1018,2 20 60
07.08.2020 10:00:00 26,0 19,0 4 2 NE - 10 -
07.08.2020 09:00:00 24,0 19,0 4 2 NW - 10 -
07.08.2020 08:00:00 21,0 21,0 8 4 WSW 1018,1 20 54
07.08.2020 07:00:00 - - - - - - - -
07.08.2020 06:00:00 - - - - - - - -
07.08.2020 05:00:00 - - - - - - - -
07.08.2020 04:00:00 - - - - - - - -
07.08.2020 03:00:00 - - - - - - - -
07.08.2020 02:00:00 - - - - - - - -
07.08.2020 01:00:00 - - - - - - - -
07.08.2020 00:00:00 - - - - - - - -
06.08.2020 23:00:00 - - - - - - - -
06.08.2020 22:00:00 - - - - - - - -
06.08.2020 21:00:00 - - - - - - - -
06.08.2020 20:00:00 27,8 15,1 13 7 ESE 1015,6 25 24
06.08.2020 19:00:00 28,0 13,0 13 7 ESE - 10 -
06.08.2020 18:00:00 29,0 17,0 16 9 ESE - 10 -
06.08.2020 17:00:00 29,0 13,7 15 8 ESE 1015,5 25 60
06.08.2020 16:00:00 29,0 14,0 9 5 SE - 10 -
06.08.2020 15:00:00 28,0 13,0 8 4 ENE - 10 -
06.08.2020 14:00:00 28,0 14,6 5 3 S 1016,3 25 60
06.08.2020 13:00:00 27,0 12,0 5 3 SSE - 10 -
06.08.2020 12:00:00 26,0 14,0 8 4 ENE - 10 -
06.08.2020 11:00:00 24,6 17,1 5 3 N 1016,2 25 60
06.08.2020 10:00:00 24,0 16,0 5 3 N - 10 -
06.08.2020 09:00:00 22,0 16,0 2 1 SW - 10 -
06.08.2020 08:00:00 18,4 17,2 11 6 W 1015,5 25 54
06.08.2020 07:00:00 - - - - - - - -
06.08.2020 06:00:00 - - - - - - - -
06.08.2020 05:00:00 - - - - - - - -
06.08.2020 04:00:00 - - - - - - - -
06.08.2020 03:00:00 - - - - - - - -
06.08.2020 02:00:00 - - - - - - - -
06.08.2020 01:00:00 - - - - - - - -
06.08.2020 00:00:00 - - - - - - - -
05.08.2020 23:00:00 - - - - - - - -
05.08.2020 22:00:00 - - - - - - - -
05.08.2020 21:00:00 - - - - - - - -
05.08.2020 20:00:00 25,2 11,0 13 7 ESE 1012,2 20 24
05.08.2020 19:00:00 26,0 8,0 16 9 E - 10 -
05.08.2020 18:00:00 27,0 6,0 15 8 E - 10 -
05.08.2020 17:00:00 26,8 7,8 15 8 ESE 1011,8 20 60
05.08.2020 16:00:00 27,0 8,0 8 4 E - 10 -
05.08.2020 15:00:00 26,0 8,0 9 5 ESE - 10 -
05.08.2020 14:00:00 25,8 8,8 9 5 E 1012,3 20 60
05.08.2020 13:00:00 25,0 10,0 5 3 ENE - 10 -
05.08.2020 12:00:00 24,0 12,0 8 4 E - 10 -
05.08.2020 11:00:00 23,2 8,5 11 6 E 1012,4 20 60
05.08.2020 10:00:00 23,0 13,0 8 4 NE - 10 -
05.08.2020 09:00:00 20,0 14,0 2 1 SW - 10 -
05.08.2020 08:00:00 17,2 14,8 5 3 W 1011,7 20 36
05.08.2020 07:00:00 - - - - - - - -
05.08.2020 06:00:00 - - - - - - - -
05.08.2020 05:00:00 - - - - - - - -
05.08.2020 04:00:00 - - - - - - - -
05.08.2020 03:00:00 - - - - - - - -
05.08.2020 02:00:00 - - - - - - - -
05.08.2020 01:00:00 - - - - - - - -
05.08.2020 00:00:00 - - - - - - - -
04.08.2020 23:00:00 - - - - - - - -
04.08.2020 22:00:00 - - - - - - - -
04.08.2020 21:00:00 - - - - - - - -
04.08.2020 20:00:00 23,6 12,0 5 3 SSE 1007,1 40 24
04.08.2020 19:00:00 24,0 11,0 5 3 ESE - 10 -
04.08.2020 18:00:00 24,0 12,0 8 4 ESE - 10 -
04.08.2020 17:00:00 23,2 12,8 4 2 NW 1006,4 40 12
04.08.2020 16:00:00 23,0 10,0 13 7 ESE - 10 -
04.08.2020 15:00:00 22,0 16,0 8 4 S - 10 -
04.08.2020 14:00:00 20,8 14,2 13 7 SE 1006,3 40 12
04.08.2020 13:00:00 20,0 16,0 13 7 ESE - 10 -
04.08.2020 12:00:00 21,0 11,0 13 7 ENE - 10 -
04.08.2020 11:00:00 19,4 13,8 2 1 NW 1004,9 40 0
04.08.2020 10:00:00 18,0 15,0 11 6 SW - 10 -
04.08.2020 09:00:00 18,0 15,0 9 5 WSW - 10 -
04.08.2020 08:00:00 18,4 12,8 18 10 WNW 1002,9 20 0
04.08.2020 07:00:00 - - - - - - - -
04.08.2020 06:00:00 - - - - - - - -
04.08.2020 05:00:00 - - - - - - - -
04.08.2020 04:00:00 - - - - - - - -
04.08.2020 03:00:00 - - - - - - - -
04.08.2020 02:00:00 - - - - - - - -
04.08.2020 01:00:00 - - - - - - - -
04.08.2020 00:00:00 - - - - - - - -
03.08.2020 23:00:00 - - - - - - - -
03.08.2020 22:00:00 - - - - - - - -

tt = temperature
td = dewpoint
ff = wind speed
dd = wind direction
ppp = reduced air pressure
vv = visibility
sd = sunshine duration

Next stations